1998-067VA

Last updated on Wed Feb 01 2023 00:03:43 GMT+0000 (Coordinated Universal Time)

1 55183U 98067VA 23031.26558517 .00036059 00000+0 56970-3 0 9992 2 55183 51.6414 286.4047 0003762 356.1292 3.9668 15.53125125 3883
UTC large
Height (km)
Speed (km/s)
/
Latitude / Longitude
Inclination (degrees)
Orbital Period (minutes)
Azimuth
Elevation
Range (km)
Doppler Factor

Next 0 passes for location: London (51.5072 / 0.1276)

Sorry there are no passes over London.